[[{"header":{"parameterUnit":"m.s-1","parameterCategory":1,"la1":30.2991,"la2":30.254,"lo1":-89.0895,"lo2":-89.0444,"dy":0.0017,"dx":0.0017,"nx":28,"ny":28,"refTime":"2024-06-12T03:00:00:Z","depth":0,"parameterNumber":2,"parameterNumberName":"U-component_of_WINDS"},"data":[0,0,0,0,0,0,0,0,0,0,0,0,0,0,0,0,0,0,0,0,0,0,0,0,0,0,0,0,0,0,0,0,0,0,0,0,0,0,0,0,0,0,0,0,0,0,0,0,0,0,0,0,0,0,0,0,0,0,-1.8158,-1.8158,0,-1.8162,-1.8162,-1.8162,-1.8088,-1.8086,-1.8084,-1.8083,-1.8088,-1.809,-1.8092,0,0,0,0,0,0,0,0,0,0,0,0,0,-1.8089,-1.8091,-1.8158,-1.8158,-1.8158,-1.8162,-1.8162,-1.8162,-1.8089,-1.8086,-1.8084,-1.8082,-1.8088,-1.809,-1.8092,0,0,0,0,0,0,0,0,0,0,0,0,0,-1.8109,-1.8091,-1.8158,-1.8122,-1.8119,-1.8162,-1.8162,-1.8162,-1.8089,-1.8086,-1.8083,-1.8081,-1.8087,-1.809,-1.8093,-1.8171,0,0,-1.8102,-1.8103,0,0,0,0,0,0,0,0,-1.8108,-1.8111,-1.8127,-1.8125,-1.8121,-1.8122,-1.814,-1.8165,-1.809,-1.8101,-1.8083,-1.8079,-1.8102,-1.8103,-1.8111,-1.8171,-1.8171,-1.8102,-1.8104,-1.8105,-1.8106,0,0,0,0,0,0,0,-1.8106,-1.8111,-1.816,-1.8128,-1.8124,-1.8106,-1.8106,-1.8144,-1.8118,-1.8099,-1.8094,-1.8095,-1.81,-1.8108,-1.811,-1.8171,-1.8102,-1.8105,-1.8107,-1.8108,-1.8297,-1.83,0,0,0,0,0,0,-1.811,-1.811,-1.8159,-1.816,-1.8107,-1.811,-1.8109,-1.8124,-1.8117,-1.8113,-1.8098,-1.8092,-1.8104,-1.8107,-1.811,-1.8202,-1.8105,-1.8108,-1.811,-1.8294,-1.8298,-1.8302,0,0,0,0,0,0,-1.8108,-1.8115,-1.8159,-1.8133,-1.8138,-1.8114,-1.8132,-1.8126,-1.8134,-1.8116,-1.8111,-1.8111,-1.8102,-1.8106,-1.8156,-1.8202,-1.8109,-1.8112,-1.829,-1.8295,-1.83,-1.8387,0,0,0,0,0,0,-1.8107,-1.8115,-1.8144,-1.8135,-1.8139,-1.8205,-1.8135,-1.8128,-1.814,-1.8132,-1.8127,-1.8124,-1.81,-1.8152,-1.816,-1.8204,-1.8114,-1.8286,-1.8293,-1.8298,-1.838,-1.8394,-1.8406,0,0,0,0,0,-1.8105,-1.8168,-1.8146,-1.8152,-1.8175,-1.8208,-1.8211,-1.8182,-1.8144,-1.8173,-1.8161,-1.8124,-1.8195,-1.8158,-1.8166,-1.8212,-1.8283,-1.8291,-1.8298,-1.8374,-1.8391,-1.8406,0,0,0,0,0,0,-1.8184,-1.8167,-1.8141,-1.8204,-1.8208,-1.8195,-1.8232,-1.8201,-1.8216,-1.8208,-1.8172,-1.8171,-1.8228,-1.8225,-1.8184,-1.8287,-1.8233,-1.8242,-1.8288,-1.8304,-1.8317,-1.8318,-1.8117,0,0,0,0,0,-1.8209,-1.8236,-1.822,-1.8277,-1.828,-1.8256,-1.8269,-1.8246,-1.8249,-1.8251,-1.8242,-1.8247,-1.8271,-1.8287,-1.8307,-1.8379,-1.8377,-1.8414,-1.8427,-1.8438,-1.8447,-1.8486,-1.8502,-1.8325,-1.8325,-1.8325,0,0,-1.826,-1.8254,-1.8274,-1.8292,-1.8293,-1.8323,-1.8258,-1.8292,-1.8314,-1.8256,-1.8303,-1.8298,-1.8301,-1.8362,-1.8389,-1.8361,-1.8495,-1.8447,-1.8456,-1.8459,-1.8495,-1.8512,-1.8526,-1.833,-1.8329,-1.8329,0,0,-1.837,-1.8368,-1.8415,-1.8417,-1.8419,-1.8402,-1.8414,-1.8406,-1.84,-1.8447,-1.8404,-1.843,-1.8471,-1.8475,-1.8482,-1.8594,-1.8561,-1.8602,-1.8671,-1.8709,-1.8723,-1.8736,-1.8777,-1.8792,-1.861,-1.861,-1.8611,0,-1.8435,-1.8478,-1.8444,-1.8482,-1.8492,-1.8439,-1.8488,-1.8491,-1.85,-1.8508,-1.8476,-1.8527,-1.8525,-1.8588,-1.8615,-1.8622,-1.8635,-1.8603,-1.8724,-1.8736,-1.8747,-1.8786,-1.8801,-1.8616,-1.8615,-1.8614,-1.8614,0,-1.8557,-1.8588,-1.8626,-1.8636,-1.865,-1.8693,-1.8666,-1.8684,-1.866,-1.8647,-1.8696,-1.8692,-1.8712,-1.8724,-1.8701,-1.8784,-1.8767,-1.873,-1.8674,-1.8769,-1.8805,-1.882,-1.8623,-1.8621,-1.8619,-1.8618,0,0,-1.8718,-1.8708,-1.8723,-1.8727,-1.8725,-1.8748,-1.8789,-1.8807,-1.8825,-1.8832,-1.8866,-1.8902,-1.8868,-1.8877,-1.8853,-1.8887,-1.8977,-1.8846,-1.8845,-1.8872,-1.907,-1.9099,-1.9117,-1.8955,-1.8957,-1.8959,-1.907,0,-1.8826,-1.8895,-1.8866,-1.8938,-1.8967,-1.8918,-1.8953,-1.8956,-1.8945,-1.8968,-1.8956,-1.8983,-1.8935,-1.894,-1.8971,-1.896,-1.9017,-1.8951,-1.8988,-1.8989,-1.899,-1.9135,-1.9166,-1.9271,-1.9084,-1.9086,-1.9088,0,-1.8962,-1.8975,-1.905,-1.9043,-1.9054,-1.9087,-1.9102,-1.9124,-1.9127,-1.9116,-1.9126,-1.9095,-1.9136,-1.9079,-1.9135,-1.9091,-1.9104,-1.9101,-1.9104,-1.9108,-1.9046,-1.9145,-1.9304,-1.932,-1.911,-1.9108,-1.9107,0,-1.9074,-1.911,-1.916,-1.9164,-1.9157,-1.9182,-1.918,-1.9179,-1.9193,-1.9206,-1.9214,-1.9232,-1.9242,-1.9257,-1.9232,-1.9193,-1.9293,-1.9233,-1.9286,-1.9287,-1.9311,-1.931,-1.9476,-1.9317,-1.9316,-1.9316,-1.9316,0,-1.9199,-1.9247,-1.921,-1.9241,-1.9294,-1.926,-1.9314,-1.9306,-1.9306,-1.9336,-1.9293,-1.9322,-1.9287,-1.9312,-1.9293,-1.9343,-1.9348,-1.9341,-1.9336,-1.9346,-1.9347,-1.9356,-1.9348,-1.932,-1.9319,-1.9318,-1.9318,0,-1.9334,-1.9311,-1.9362,-1.9351,-1.9349,-1.9389,-1.938,-1.9409,-1.9394,-1.9432,-1.9439,-1.9417,-1.9445,-1.9421,-1.9448,-1.9435,-1.9502,-1.9485,-1.9501,-1.9497,-1.9552,-1.9548,-1.9731,-1.9753,-1.9578,-1.958,-1.9581,0,-1.9416,-1.9452,-1.9445,-1.9461,-1.9462,-1.9489,-1.9502,-1.947,-1.9485,-1.9491,-1.952,-1.9543,-1.9561,-1.9608,-1.9595,-1.9615,-1.96,-1.9662,-1.9603,-1.9612,-1.9603,-1.9602,-1.9606,-1.9675,-1.9677,-1.9679,-1.968,0,-1.9564,-1.9551,-1.9571,-1.9589,-1.9605,-1.9617,-1.9626,-1.9642,-1.9609,-1.9629,-1.9656,-1.967,-1.9697,-1.9722,-1.9738,-1.9737,-1.9704,-1.9699,-1.9712,-1.9724,-1.9733,-1.973,-1.9536,-1.9695,-1.9694,-1.9692,-1.9692,-1.9691,-1.9676,-1.9706,-1.9706,-1.9731,-1.9734,-1.9743,-1.9769,-1.9758,-1.9781,-1.98,-1.978,-1.9814,-1.9816,-1.9834,-1.9837,-1.9863,-1.9838,-1.9857,-1.9862,-1.9868,-1.9877,-1.9727,-1.9866,-1.9866,-1.9865,-1.9865,-1.9864,0,-1.9824,-1.9822,-1.9844,-1.9858,-1.9877,-1.9843,-1.9851,-1.987,-1.99,-1.9904,-1.9922,-1.9955,-1.9979,-1.9967,-1.9988,-2.0012,-1.9998,-2.0019,-2.0018,-2.0018,-1.9898,-1.9885,-2.003,-2.003,-2.003,-2.003,-2.003,-2.003,-1.9904,-1.9953,-1.994,-1.9991,-1.9988,-2.0021,-2.0029,-2.0037,-2.0041,-2.0078,-2.0098,-2.009,-2.0088,-2.0109,-2.013,-2.0126,-2.0136,-2.0164,-2.0155,-2.0043,-2.0027,-2.0011,-1.9999,-2.0166,-2.0166,-2.0273,-2.0274,-2.0275]},{"header":{"parameterUnit":"m.s-1","parameterCategory":1,"la1":30.2991,"la2":30.254,"lo1":-89.0895,"lo2":-89.0444,"dy":0.0017,"dx":0.0017,"nx":28,"ny":28,"refTime":"2024-06-12T03:00:00:Z","depth":0,"parameterNumber":3,"parameterNumberName":"V-component_of_WINDS"},"data":[0,0,0,0,0,0,0,0,0,0,0,0,0,0,0,0,0,0,0,0,0,0,0,0,0,0,0,0,0,0,0,0,0,0,0,0,0,0,0,0,0,0,0,0,0,0,0,0,0,0,0,0,0,0,0,0,0,0,-3.1129,-3.1129,0,-3.1141,-3.1141,-3.1141,-3.1092,-3.1091,-3.1089,-3.1088,-3.1098,-3.1099,-3.1101,0,0,0,0,0,0,0,0,0,0,0,0,0,-3.1063,-3.1065,-3.1129,-3.1129,-3.1129,-3.1141,-3.1141,-3.1141,-3.1093,-3.1091,-3.1089,-3.1087,-3.1097,-3.1099,-3.1101,0,0,0,0,0,0,0,0,0,0,0,0,0,-3.1085,-3.1065,-3.1129,-3.1107,-3.1105,-3.1141,-3.1141,-3.1141,-3.1093,-3.1091,-3.1089,-3.1087,-3.1097,-3.1099,-3.1101,-3.1159,0,0,-3.1109,-3.111,0,0,0,0,0,0,0,0,-3.1084,-3.1087,-3.111,-3.1108,-3.1106,-3.1113,-3.1121,-3.1147,-3.1093,-3.1097,-3.1088,-3.1086,-3.1104,-3.1106,-3.1113,-3.1159,-3.1159,-3.1109,-3.111,-3.1111,-3.1112,0,0,0,0,0,0,0,-3.1082,-3.1087,-3.1134,-3.111,-3.1108,-3.1095,-3.1096,-3.1126,-3.1113,-3.1097,-3.1093,-3.1096,-3.1103,-3.1111,-3.1113,-3.116,-3.1109,-3.1111,-3.1112,-3.1113,-3.1254,-3.1256,0,0,0,0,0,0,-3.1084,-3.1086,-3.1133,-3.1134,-3.109,-3.1098,-3.1099,-3.1113,-3.1112,-3.111,-3.1097,-3.1093,-3.1108,-3.111,-3.1113,-3.118,-3.1111,-3.1113,-3.1115,-3.1251,-3.1254,-3.1257,0,0,0,0,0,0,-3.1083,-3.1089,-3.1133,-3.1109,-3.1114,-3.1102,-3.1118,-3.1114,-3.1122,-3.1113,-3.111,-3.1108,-3.1106,-3.1109,-3.1148,-3.118,-3.1114,-3.1117,-3.1249,-3.1252,-3.1256,-3.1315,0,0,0,0,0,0,-3.1081,-3.1089,-3.1111,-3.111,-3.1115,-3.1168,-3.112,-3.1116,-3.1126,-3.1121,-3.1122,-3.112,-3.1105,-3.1145,-3.115,-3.1182,-3.1118,-3.1246,-3.125,-3.1254,-3.131,-3.132,-3.1328,0,0,0,0,0,-3.1079,-3.1126,-3.1112,-3.1118,-3.1143,-3.117,-3.1173,-3.1156,-3.1129,-3.1151,-3.1145,-3.1119,-3.1175,-3.1149,-3.1155,-3.1188,-3.1244,-3.1249,-3.1254,-3.1306,-3.1318,-3.1328,0,0,0,0,0,0,-3.113,-3.1126,-3.111,-3.1159,-3.1165,-3.1162,-3.1189,-3.1169,-3.1183,-3.1177,-3.1154,-3.1155,-3.1197,-3.1196,-3.1167,-3.1243,-3.1205,-3.1211,-3.1242,-3.1254,-3.1263,-3.1262,-3.112,0,0,0,0,0,-3.1147,-3.1171,-3.1166,-3.1209,-3.1213,-3.1201,-3.1212,-3.1198,-3.1204,-3.1206,-3.1203,-3.1209,-3.1228,-3.1241,-3.1257,-3.131,-3.1309,-3.1335,-3.1345,-3.1352,-3.1358,-3.1386,-3.1397,-3.1274,-3.1274,-3.1274,0,0,-3.1183,-3.1183,-3.1199,-3.1219,-3.1223,-3.1247,-3.1203,-3.1231,-3.1249,-3.121,-3.1246,-3.1245,-3.1249,-3.1295,-3.1315,-3.1296,-3.1392,-3.1359,-3.1365,-3.1367,-3.1392,-3.1404,-3.1414,-3.1277,-3.1277,-3.1276,0,0,-3.1259,-3.1263,-3.1299,-3.1304,-3.131,-3.1302,-3.1311,-3.1311,-3.1308,-3.1345,-3.1316,-3.1337,-3.137,-3.1375,-3.1381,-3.1461,-3.1438,-3.1467,-3.1515,-3.1543,-3.1552,-3.1561,-3.1589,-3.16,-3.1473,-3.1473,-3.1473,0,-3.1302,-3.1339,-3.132,-3.135,-3.136,-3.1327,-3.1364,-3.1369,-3.138,-3.1388,-3.1366,-3.1407,-3.1408,-3.1454,-3.1474,-3.1481,-3.149,-3.1467,-3.1553,-3.1561,-3.1569,-3.1595,-3.1606,-3.1477,-3.1476,-3.1476,-3.1476,0,-3.1391,-3.1417,-3.1446,-3.1459,-3.1471,-3.1505,-3.1491,-3.1506,-3.1491,-3.1485,-3.1522,-3.1522,-3.1539,-3.1549,-3.1534,-3.1593,-3.1581,-3.1557,-3.1517,-3.1584,-3.1609,-3.1619,-3.1482,-3.1481,-3.148,-3.1479,0,0,-3.15,-3.1503,-3.1514,-3.1519,-3.1524,-3.1544,-3.1575,-3.1592,-3.1606,-3.1615,-3.164,-3.167,-3.1647,-3.1655,-3.164,-3.1665,-3.1728,-3.1637,-3.1636,-3.1654,-3.1793,-3.1812,-3.1824,-3.1713,-3.1715,-3.1716,-3.1793,0,-3.1575,-3.163,-3.1615,-3.167,-3.1693,-3.1663,-3.169,-3.1696,-3.1691,-3.171,-3.1704,-3.1725,-3.1694,-3.1698,-3.1721,-3.1715,-3.1755,-3.171,-3.1736,-3.1737,-3.1736,-3.1837,-3.1856,-3.1929,-3.1802,-3.1804,-3.1805,0,-3.167,-3.1684,-3.1742,-3.1744,-3.1753,-3.1778,-3.1793,-3.1811,-3.1817,-3.1812,-3.1821,-3.1802,-3.1833,-3.1794,-3.1836,-3.1805,-3.1815,-3.1814,-3.1816,-3.1818,-3.1775,-3.1841,-3.1951,-3.1962,-3.182,-3.1819,-3.1818,0,-3.1744,-3.1777,-3.1816,-3.1822,-3.1825,-3.1843,-3.1845,-3.1849,-3.186,-3.1873,-3.188,-3.1896,-3.1904,-3.1917,-3.1902,-3.1876,-3.1946,-3.1906,-3.1942,-3.1943,-3.1958,-3.1958,-3.2072,-3.1965,-3.1965,-3.1965,-3.1965,0,-3.183,-3.1866,-3.1849,-3.1873,-3.1913,-3.1895,-3.1934,-3.1933,-3.1937,-3.1959,-3.1934,-3.1955,-3.1935,-3.1955,-3.1944,-3.198,-3.1984,-3.198,-3.1977,-3.1982,-3.1983,-3.1988,-3.1983,-3.1968,-3.1967,-3.1967,-3.1966,0,-3.1919,-3.1909,-3.1949,-3.1949,-3.195,-3.1979,-3.1979,-3.2001,-3.1994,-3.2023,-3.2029,-3.2019,-3.204,-3.2027,-3.2049,-3.2042,-3.2089,-3.2079,-3.2088,-3.2085,-3.2122,-3.2118,-3.2243,-3.2258,-3.2142,-3.2144,-3.2145,0,-3.1974,-3.2001,-3.2005,-3.2019,-3.2023,-3.2045,-3.2057,-3.204,-3.2053,-3.2063,-3.2083,-3.2103,-3.2118,-3.2154,-3.2149,-3.2165,-3.2155,-3.2198,-3.2157,-3.2162,-3.2156,-3.2154,-3.2157,-3.2206,-3.2207,-3.2208,-3.2209,0,-3.2073,-3.2067,-3.2086,-3.2103,-3.2118,-3.2131,-3.2141,-3.2153,-3.2137,-3.2153,-3.2175,-3.2187,-3.221,-3.223,-3.2245,-3.2246,-3.2225,-3.2222,-3.2231,-3.2237,-3.2241,-3.2239,-3.211,-3.2219,-3.2218,-3.2217,-3.2217,-3.2216,-3.2147,-3.217,-3.2176,-3.2198,-3.2204,-3.2214,-3.2235,-3.2232,-3.2251,-3.2269,-3.2257,-3.2284,-3.2289,-3.2307,-3.2311,-3.2331,-3.2314,-3.2327,-3.233,-3.2334,-3.2339,-3.2238,-3.2333,-3.2333,-3.2333,-3.2333,-3.2332,0,-3.2245,-3.2248,-3.2268,-3.2283,-3.2301,-3.228,-3.2291,-3.2306,-3.233,-3.2337,-3.2353,-3.2379,-3.2398,-3.2395,-3.2412,-3.2429,-3.242,-3.2434,-3.2433,-3.2433,-3.2353,-3.2344,-3.2441,-3.2441,-3.2441,-3.2441,-3.2441,-3.2441,-3.2298,-3.2336,-3.2331,-3.2372,-3.2374,-3.2401,-3.2409,-3.2418,-3.2424,-3.2454,-3.2471,-3.2468,-3.2471,-3.2489,-3.2505,-3.2504,-3.2511,-3.2529,-3.2524,-3.2449,-3.2439,-3.2428,-3.2419,-3.2531,-3.2531,-3.2602,-3.2603,-3.2603]}]]